Regional Weather Roundup
Issued by NWS Northern Indiana

Home | Current Version | Previous Version | Text Only | Print | Product List | Glossary On
Versions: 1 2 3 4 5 6 7 8 9 10 11 12 13 14 15 16 17 18 19 20 21 22 23 24 25 26 27 28 29 30 31 32 33 34 35 36 37 38 39 40 41 42 43 44 45 46 47 48 49 50
000
ASUS43 KIWX 180510
RWRIWX

KIWX WEATHER ROUNDUP
NATIONAL WEATHER SERVICE NORTHERN INDIANA
1200 AM EST SAT NOV 18 2017

NOTE: "FAIR" INDICATES FEW OR NO CLOUDS BELOW 12,000 FEET WITH NO
SIGNIFICANT WEATHER AND/OR OBSTRUCTIONS TO VISIBILITY.

* THESE STATIONS ARE NOT UNDER NWS QUALITY CONTROL. THEY ALSO MAY NOT
  REPORT WEATHER SUCH AS PRECIPITATION OR FOG.

INZ001>027-180600-
NORTHERN INDIANA

CITY           SKY/WX    TMP DP  RH WIND       PRES   REMARKS
GARY*          CLOUDY    49  44  82 S7        29.59F
VALPARAISO     CLOUDY    46  43  89 SE5       29.61F
MICHIGAN CITY* LGT RAIN  43  43 100 S7        29.60F
LAPORTE*       DRIZZLE   42  40  96 S7        29.61F
KNOX*          CLOUDY    43  41  93 S8        29.61F
SOUTH BEND     LGT RAIN  42  42 100 S12G20    29.62F
GOSHEN         CLOUDY    43  38  82 S7        29.64F
MONTICELLO*    CLOUDY    46  40  82 S8        29.61F
LOGANSPORT*    CLOUDY    45  41  87 S12       29.64F
ROCHESTER*     CLOUDY    46  43  87 S8G20     29.63F
WARSAW*        CLOUDY    43  41  93 S5        29.64F
AUBURN*        HVY RAIN  41  39  93 S5        29.67F
FORT WAYNE     LGT RAIN  45  42  89 S16       29.66F
HUNTINGTON*    CLOUDY    44  42  94 S14G21    29.65F
MARION*        CLOUDY    46  41  85 S18G24    29.66F

$$
INZ028>050-180600-
CENTRAL INDIANA

CITY           SKY/WX    TMP DP  RH WIND       PRES   REMARKS
LAFAYETTE      CLOUDY    49  42  77 S6        29.63F
KOKOMO*        CLOUDY    47  41  80 S20G28    29.65F
MUNCIE*        CLOUDY    48  41  76 S17G26    29.67F
INDIANAPOLIS   LGT RAIN  49  42  77 S10       29.68F

$$
MIZ043>046-050>051-056>058-064>065-071>073-077>080-180600-
SOUTHWEST LOWER MICHIGAN

CITY           SKY/WX    TMP DP  RH WIND       PRES   REMARKS
BATTLE CREEK   LGT RAIN  41  39  93 S17G24    29.63F
BENTON HARBOR  LGT RAIN  44  40  85 S9        29.59F FOG
COLDWATER*     HVY RAIN  41  40  99 S8G18     29.65F
HILLSDALE*     RAIN      39  36  87 S16G30    29.65F
HOLLAND        LGT RAIN  43  41  93 S8        29.62F FOG
GRAND RAPIDS   LGT RAIN  42  42 100 S12       29.62F FOG
KALAMAZOO      LGT RAIN  41  38  89 S16G24    29.62F FOG
STURGIS*       DRIZZLE   39  39 100 S9G16     29.64F
THREE RIVERS*  RAIN      42  40  95 S14       29.64F

$$
OHZ001>008-015>018-024>025-180600-
NORTHWEST OHIO

CITY           SKY/WX    TMP DP  RH WIND       PRES   REMARKS
WAUSEON*       MIX PCPN  41  41 100 SW10      29.72R
DEFIANCE       RAIN      42  38  85 S10       29.70R FOG
FINDLAY        LGT RAIN  46  31  55 S18       29.69F
TOLEDO EXPRESS HVY RAIN  43  39  86 S5        29.72R FOG
TOLEDO METCALF LGT RAIN  44  35  70 S12       29.72F
LIMA           RAIN      45  36  70 S13G21    29.72R

$$
AND FOR LAKE MICHIGAN COASTAL AND OPEN LAKE BUOY OBSERVATIONS

STATION/POSITION TEMP    WIND        PRES    VSBY  WAVE
                 AIR SEA DIR/SP/G                  HT/PER
                 (F)     (DEG/KT/KT) (MB)    (MI)  (FT/S)
MICHIGAN CITY     42     160/ 11/ 14   N/A
BURNS HARBOR      45     180/ 13/ 20 1002.7F
SAINT JOSEPH      43     190/  5/ 13 1002.7
SOUTH LAKE BUOY   45 50  210/ 21/ 25 1002.5          8/ 7

$$
&&



USA.gov is the U.S. government's official web portal to all federal, state and local government web resources and services.